| time (UTC) | temp F | wind direction | speed MPH | gust MPH | rain 1hr in | rain 24hr in | rain mn in | humidity % | barometer mb |
| 20260902083406 | 67 | 186 | 6.0 | 12.0 | 0.00 | 0.00 | 0.00 | 76 | 1018.0 |
| 20260902082407 | 67 | 214 | 5.0 | 12.0 | 0.00 | 0.00 | 0.00 | 75 | 1018.0 |
| 20260902081906 | 66 | 205 | 5.0 | 9.0 | 0.00 | 0.00 | 0.00 | 76 | 1017.9 |
| 20260902081406 | 67 | 164 | 2.0 | 8.0 | 0.00 | 0.00 | 0.00 | 77 | 1017.9 |
| 20260902075906 | 65 | 156 | 5.0 | 9.0 | 0.00 | 0.00 | 0.00 | 78 | 1017.9 |
| 20260902075406 | 64 | 178 | 2.0 | 9.0 | 0.00 | 0.00 | 0.00 | 79 | 1017.8 |
| 20260902074909 | 64 | 149 | 3.0 | 9.0 | 0.00 | 0.00 | 0.00 | 80 | 1017.7 |
| 20260902074406 | 63 | 136 | 5.0 | 10.0 | 0.00 | 0.00 | 0.00 | 80 | 1017.7 |
| 20260902073906 | 63 | 160 | 5.0 | 12.0 | 0.00 | 0.00 | 0.00 | 80 | 1017.7 |
| 20260902073407 | 63 | 153 | 6.0 | 10.0 | 0.00 | 0.00 | 0.00 | 81 | 1017.7 |
| 20260902072906 | 63 | 162 | 4.0 | 9.0 | 0.00 | 0.00 | 0.00 | 81 | 1017.7 |
| 20260902072406 | 62 | 147 | 2.0 | 7.0 | 0.00 | 0.00 | 0.00 | 82 | 1017.7 |
| 20260902071906 | 61 | 176 | 5.0 | 8.0 | 0.00 | 0.00 | 0.00 | 82 | 1017.7 |
| 20260902071406 | 61 | 167 | 5.0 | 8.0 | 0.00 | 0.00 | 0.00 | 83 | 1017.7 |
| 20260902070907 | 60 | 146 | 3.0 | 9.0 | 0.00 | 0.00 | 0.00 | 83 | 1017.7 |
| 20260902065906 | 59 | 156 | 3.0 | 7.0 | 0.00 | 0.00 | 0.00 | 85 | 1017.9 |
| 20260902065407 | 59 | 167 | 3.0 | 6.0 | 0.00 | 0.00 | 0.00 | 85 | 1017.8 |
| 20260902064906 | 58 | 169 | 4.0 | 9.0 | 0.00 | 0.00 | 0.00 | 85 | 1017.8 |
| 20260902063905 | 58 | 183 | 5.0 | 9.0 | 0.00 | 0.00 | 0.00 | 85 | 1017.8 |
| 20260902063406 | 57 | 157 | 4.0 | 6.0 | 0.00 | 0.00 | 0.00 | 86 | 1017.7 |
| 20260902062906 | 57 | 137 | 5.0 | 8.0 | 0.00 | 0.00 | 0.00 | 86 | 1017.9 |
| 20260902062406 | 57 | 151 | 3.0 | 7.0 | 0.00 | 0.00 | 0.00 | 86 | 1017.9 |
| 20260902061906 | 56 | 155 | 3.0 | 8.0 | 0.00 | 0.00 | 0.00 | 86 | 1017.8 |
| 20260902061407 | 56 | 145 | 4.0 | 7.0 | 0.00 | 0.00 | 0.00 | 86 | 1017.8 |
| 20260902060906 | 56 | 175 | 4.0 | 7.0 | 0.00 | 0.00 | 0.00 | 86 | 1017.8 |
| 20260902060406 | 56 | 178 | 4.0 | 9.0 | 0.00 | 0.00 | 0.00 | 86 | 1017.7 |
| 20260902055906 | 56 | 159 | 3.0 | 7.0 | 0.00 | 0.00 | 0.00 | 87 | 1017.7 |
| 20260902055406 | 56 | 142 | 4.0 | 8.0 | 0.00 | 0.00 | 0.00 | 87 | 1017.7 |
| 20260902054406 | 56 | 154 | 3.0 | 9.0 | 0.00 | 0.00 | 0.00 | 87 | 1017.8 |
| 20260902053906 | 56 | 173 | 3.0 | 8.0 | 0.00 | 0.00 | 0.00 | 87 | 1017.8 |
| 20260902053406 | 56 | 153 | 3.0 | 8.0 | 0.00 | 0.00 | 0.00 | 87 | 1017.9 |
| 20260902052906 | 56 | 146 | 3.0 | 6.0 | 0.00 | 0.00 | 0.00 | 87 | 1017.9 |
| 20260902052406 | 56 | 158 | 3.0 | 6.0 | 0.00 | 0.00 | 0.00 | 87 | 1017.8 |
| 20260902051906 | 56 | 158 | 3.0 | 6.0 | 0.00 | 0.00 | 0.00 | 88 | 1017.8 |
| 20260902051406 | 56 | 179 | 3.0 | 6.0 | 0.00 | 0.00 | 0.00 | 88 | 1017.9 |
| 20260902050907 | 56 | 140 | 1.0 | 6.0 | 0.00 | 0.00 | 0.00 | 87 | 1017.8 |
| 20260902050406 | 55 | 187 | 3.0 | 6.0 | 0.00 | 0.00 | 0.00 | 87 | 1017.8 |
| 20260902045906 | 55 | 147 | 3.0 | 6.0 | 0.00 | 0.00 | 0.00 | 87 | 1017.7 |
| 20260902044906 | 56 | 170 | 3.0 | 7.0 | 0.00 | 0.00 | 0.00 | 87 | 1017.7 |
| 20260902044406 | 56 | 169 | 2.0 | 8.0 | 0.00 | 0.00 | 0.00 | 87 | 1017.7 |
| 20260902043406 | 56 | 143 | 2.0 | 5.0 | 0.00 | 0.00 | 0.00 | 87 | 1017.8 |
| 20260902042906 | 56 | 167 | 2.0 | 5.0 | 0.00 | 0.00 | 0.00 | 87 | 1017.7 |
| 20260902042406 | 56 | 139 | 3.0 | 6.0 | 0.00 | 0.00 | 0.00 | 87 | 1017.7 |
| 20260902041906 | 56 | 146 | 2.0 | 5.0 | 0.00 | 0.00 | 0.00 | 88 | 1017.8 |
| 20260902041406 | 56 | 173 | 2.0 | 6.0 | 0.00 | 0.00 | 0.00 | 87 | 1017.9 |
| 20260902040906 | 56 | 166 | 3.0 | 5.0 | 0.00 | 0.00 | 0.00 | 87 | 1017.9 |
| 20260902040406 | 55 | 182 | 2.0 | 6.0 | 0.00 | 0.00 | 0.00 | 87 | 1017.9 |
| 20260902035907 | 55 | 139 | 2.0 | 7.0 | 0.00 | 0.00 | 0.00 | 87 | 1018.0 |
| 20260902034906 | 55 | 160 | 3.0 | 6.0 | 0.00 | 0.00 | 0.00 | 87 | 1018.1 |
| 20260902034406 | 55 | 174 | 3.0 | 6.0 | 0.00 | 0.00 | 0.00 | 87 | 1018.1 |
| 20260902033906 | 55 | 154 | 3.0 | 8.0 | 0.00 | 0.00 | 0.00 | 88 | 1018.1 |
| 20260902033406 | 55 | 157 | 3.0 | 6.0 | 0.00 | 0.00 | 0.00 | 88 | 1018.2 |
| 20260902032906 | 55 | 162 | 3.0 | 5.0 | 0.00 | 0.00 | 0.00 | 88 | 1018.2 |
| 20260902032406 | 55 | 179 | 2.0 | 5.0 | 0.00 | 0.00 | 0.00 | 88 | 1018.2 |
| 20260902031906 | 55 | 162 | 2.0 | 6.0 | 0.00 | 0.00 | 0.00 | 88 | 1018.3 |
| 20260902031406 | 55 | 152 | 2.0 | 5.0 | 0.00 | 0.00 | 0.00 | 88 | 1018.3 |
| 20260902030906 | 55 | 165 | 2.0 | 5.0 | 0.00 | 0.00 | 0.00 | 88 | 1018.3 |
| 20260902030407 | 55 | 172 | 2.0 | 6.0 | 0.00 | 0.00 | 0.00 | 88 | 1018.3 |
| 20260902025406 | 55 | 135 | 2.0 | 6.0 | 0.00 | 0.00 | 0.00 | 89 | 1018.5 |
| 20260902024906 | 55 | 172 | 2.0 | 5.0 | 0.00 | 0.00 | 0.00 | 89 | 1018.5 |
| 20260902024406 | 55 | 167 | 2.0 | 6.0 | 0.00 | 0.00 | 0.00 | 89 | 1018.5 |
| 20260902023906 | 54 | 161 | 3.0 | 7.0 | 0.00 | 0.00 | 0.00 | 89 | 1018.4 |
| 20260902023406 | 54 | 176 | 2.0 | 6.0 | 0.00 | 0.00 | 0.00 | 88 | 1018.6 |
| 20260902022906 | 54 | 181 | 2.0 | 5.0 | 0.00 | 0.00 | 0.00 | 88 | 1018.5 |
| 20260902022406 | 54 | 176 | 2.0 | 5.0 | 0.00 | 0.00 | 0.00 | 88 | 1018.5 |
| 20260902021906 | 54 | 159 | 2.0 | 6.0 | 0.00 | 0.00 | 0.00 | 88 | 1018.5 |
| 20260902021406 | 54 | 178 | 3.0 | 6.0 | 0.00 | 0.00 | 0.00 | 88 | 1018.6 |
| 20260902020907 | 54 | 171 | 2.0 | 6.0 | 0.00 | 0.00 | 0.00 | 89 | 1018.6 |
| 20260902020406 | 54 | 141 | 2.0 | 3.0 | 0.00 | 0.00 | 0.00 | 89 | 1018.5 |
| 20260902015406 | 54 | 158 | 2.0 | 5.0 | 0.00 | 0.00 | 0.00 | 88 | 1018.5 |
| 20260902014906 | 54 | 164 | 2.0 | 6.0 | 0.00 | 0.00 | 0.00 | 88 | 1018.5 |
| 20260902014406 | 54 | 156 | 2.0 | 5.0 | 0.00 | 0.00 | 0.00 | 88 | 1018.5 |
| 20260902013906 | 54 | 148 | 3.0 | 6.0 | 0.00 | 0.00 | 0.00 | 88 | 1018.4 |
| 20260902013406 | 54 | 167 | 2.0 | 6.0 | 0.00 | 0.00 | 0.00 | 88 | 1018.4 |
| 20260902011906 | 54 | 134 | 2.0 | 5.0 | 0.00 | 0.00 | 0.00 | 88 | 1018.6 |
| 20260902011406 | 54 | 174 | 3.0 | 7.0 | 0.00 | 0.00 | 0.00 | 88 | 1018.5 |
| 20260902010908 | 54 | 162 | 3.0 | 7.0 | 0.00 | 0.00 | 0.00 | 89 | 1018.5 |
| 20260902010406 | 54 | 152 | 2.0 | 5.0 | 0.00 | 0.00 | 0.00 | 89 | 1018.6 |
| 20260902005907 | 54 | 149 | 3.0 | 5.0 | 0.00 | 0.00 | 0.00 | 89 | 1018.5 |
| 20260902005407 | 54 | 160 | 2.0 | 5.0 | 0.00 | 0.00 | 0.00 | 89 | 1018.5 |
| 20260902004906 | 54 | 138 | 1.0 | 3.0 | 0.00 | 0.00 | 0.00 | 88 | 1018.6 |
| 20260902004406 | 54 | 142 | 1.0 | 3.0 | 0.00 | 0.00 | 0.00 | 88 | 1018.6 |
| 20260902003406 | 55 | 144 | 1.0 | 3.0 | 0.00 | 0.00 | 0.00 | 88 | 1018.6 |
| 20260902002906 | 55 | 171 | 1.0 | 3.0 | 0.00 | 0.00 | 0.00 | 89 | 1018.6 |
| 20260902002406 | 55 | 166 | 0.0 | 3.0 | 0.00 | 0.00 | 0.00 | 88 | 1018.6 |
| 20260902001906 | 55 | 183 | 1.0 | 3.0 | 0.00 | 0.00 | 0.00 | 88 | 1018.7 |
| 20260902001407 | 55 | 171 | 1.0 | 3.0 | 0.00 | 0.00 | 0.00 | 88 | 1018.7 |
| 20260902000906 | 55 | 180 | 1.0 | 3.0 | 0.00 | 0.00 | 0.00 | 88 | 1018.7 |
| 20260901235908 | 55 | 171 | 1.0 | 3.0 | 0.00 | 0.00 | 0.00 | 88 | 1018.6 |
| 20260901235407 | 55 | 182 | 1.0 | 3.0 | 0.00 | 0.00 | 0.00 | 88 | 1018.6 |
| 20260901234906 | 55 | 155 | 2.0 | 5.0 | 0.00 | 0.00 | 0.00 | 87 | 1018.7 |
| 20260901234406 | 55 | 181 | 2.0 | 5.0 | 0.00 | 0.00 | 0.00 | 87 | 1018.7 |
| 20260901233907 | 55 | 185 | 1.0 | 5.0 | 0.00 | 0.00 | 0.00 | 87 | 1018.7 |
| 20260901233406 | 55 | 167 | 2.0 | 3.0 | 0.00 | 0.00 | 0.00 | 87 | 1018.8 |
| 20260901232906 | 56 | 186 | 1.0 | 3.0 | 0.00 | 0.00 | 0.00 | 87 | 1018.8 |
| 20260901232406 | 56 | 172 | 1.0 | 3.0 | 0.00 | 0.00 | 0.00 | 87 | 1018.8 |
| 20260901231906 | 56 | 175 | 0.0 | 3.0 | 0.00 | 0.00 | 0.00 | 87 | 1018.7 |
| 20260901231406 | 56 | 177 | 1.0 | 3.0 | 0.00 | 0.00 | 0.00 | 86 | 1018.7 |
| 20260901230906 | 56 | 192 | 2.0 | 3.0 | 0.00 | 0.00 | 0.00 | 86 | 1018.8 |
| 20260901225906 | 56 | 164 | 1.0 | 3.0 | 0.00 | 0.00 | 0.00 | 86 | 1018.8 |
| 20260901225406 | 56 | 152 | 1.0 | 3.0 | 0.00 | 0.00 | 0.00 | 87 | 1018.8 |
| 20260901224906 | 56 | 136 | 1.0 | 3.0 | 0.00 | 0.00 | 0.00 | 87 | 1018.8 |
| 20260901224406 | 56 | 169 | 1.0 | 3.0 | 0.00 | 0.00 | 0.00 | 86 | 1018.9 |
| 20260901223906 | 56 | 143 | 0.0 | 2.0 | 0.00 | 0.00 | 0.00 | 86 | 1019.1 |
| 20260901223407 | 56 | 143 | 0.0 | 2.0 | 0.00 | 0.00 | 0.00 | 86 | 1019.0 |
| 20260901222906 | 56 | 184 | 0.0 | 0.0 | 0.00 | 0.00 | 0.00 | 86 | 1019.1 |
| 20260901222406 | 56 | 142 | 0.0 | 2.0 | 0.00 | 0.00 | 0.00 | 85 | 1019.1 |
| 20260901221908 | 56 | 141 | 0.0 | 1.0 | 0.00 | 0.01 | 0.00 | 85 | 1019.2 |
| 20260901221406 | 57 | 141 | 0.0 | 3.0 | 0.00 | 0.01 | 0.00 | 85 | 1019.2 |
| 20260901220912 | 57 | 139 | 0.0 | 2.0 | 0.00 | 0.01 | 0.00 | 85 | 1019.3 |
| 20260901220406 | 57 | 200 | 2.0 | 3.0 | 0.00 | 0.01 | 0.00 | 85 | 1019.4 |
| 20260901215407 | 57 | 174 | 1.0 | 3.0 | 0.00 | 0.01 | 0.01 | 84 | 1019.4 |
| 20260901214406 | 57 | 204 | 1.0 | 3.0 | 0.00 | 0.01 | 0.01 | 84 | 1019.5 |
| 20260901213406 | 57 | 200 | 1.0 | 3.0 | 0.00 | 0.01 | 0.01 | 83 | 1019.5 |
| 20260901212906 | 58 | 190 | 1.0 | 3.0 | 0.00 | 0.01 | 0.01 | 83 | 1019.5 |
| 20260901212406 | 58 | 196 | 1.0 | 5.0 | 0.00 | 0.01 | 0.01 | 82 | 1019.5 |
| 20260901211906 | 58 | 175 | 1.0 | 2.0 | 0.00 | 0.01 | 0.01 | 81 | 1019.5 |
| 20260901211406 | 59 | 196 | 1.0 | 3.0 | 0.00 | 0.01 | 0.01 | 81 | 1019.6 |
| 20260901210908 | 59 | 207 | 1.0 | 3.0 | 0.00 | 0.01 | 0.01 | 80 | 1019.6 |
| 20260901210406 | 59 | 225 | 1.0 | 3.0 | 0.00 | 0.01 | 0.01 | 80 | 1019.6 |
| 20260901205906 | 59 | 262 | 1.0 | 3.0 | 0.00 | 0.01 | 0.01 | 80 | 1019.5 |
| 20260901205406 | 59 | 260 | 1.0 | 3.0 | 0.00 | 0.01 | 0.01 | 80 | 1019.5 |
| 20260901204406 | 60 | 265 | 0.0 | 2.0 | 0.00 | 0.01 | 0.01 | 79 | 1019.5 |
| 20260901203406 | 60 | 264 | 1.0 | 3.0 | 0.00 | 0.01 | 0.01 | 80 | 1019.4 |
| 20260901202906 | 59 | 286 | 2.0 | 6.0 | 0.00 | 0.01 | 0.01 | 81 | 1019.4 |
| 20260901201906 | 59 | 227 | 0.0 | 2.0 | 0.00 | 0.01 | 0.01 | 81 | 1019.3 |
| 20260901200906 | 59 | 183 | 1.0 | 3.0 | 0.00 | 0.01 | 0.01 | 81 | 1019.2 |
| 20260901195906 | 59 | 194 | 1.0 | 3.0 | 0.00 | 0.01 | 0.01 | 80 | 1019.1 |
| 20260901195406 | 59 | 187 | 1.0 | 3.0 | 0.00 | 0.01 | 0.01 | 80 | 1019.1 |
| 20260901193906 | 60 | 188 | 1.0 | 3.0 | 0.00 | 0.01 | 0.01 | 79 | 1019.2 |
| 20260901193406 | 60 | 215 | 0.0 | 2.0 | 0.00 | 0.01 | 0.01 | 78 | 1019.2 |
| 20260901192906 | 61 | 204 | 0.0 | 2.0 | 0.00 | 0.01 | 0.01 | 77 | 1019.1 |
| 20260901191906 | 62 | 228 | 2.0 | 3.0 | 0.00 | 0.01 | 0.01 | 75 | 1019.2 |
| 20260901190906 | 62 | 242 | 1.0 | 3.0 | 0.00 | 0.01 | 0.01 | 75 | 1019.1 |
| 20260901190406 | 62 | 261 | 2.0 | 3.0 | 0.00 | 0.01 | 0.01 | 76 | 1019.2 |
| 20260901185906 | 62 | 236 | 0.0 | 2.0 | 0.00 | 0.01 | 0.01 | 76 | 1019.2 |
| 20260901185406 | 62 | 253 | 1.0 | 3.0 | 0.00 | 0.01 | 0.01 | 76 | 1019.2 |
| 20260901184906 | 62 | 244 | 1.0 | 3.0 | 0.00 | 0.01 | 0.01 | 76 | 1019.2 |
| 20260901184406 | 62 | 296 | 0.0 | 1.0 | 0.00 | 0.01 | 0.01 | 76 | 1019.2 |
| 20260901183907 | 62 | 296 | 1.0 | 2.0 | 0.00 | 0.01 | 0.01 | 76 | 1019.2 |
| 20260901183406 | 62 | 286 | 0.0 | 1.0 | 0.00 | 0.01 | 0.01 | 75 | 1019.1 |
| 20260901182906 | 62 | 286 | 0.0 | 1.0 | 0.00 | 0.01 | 0.01 | 74 | 1019.1 |
| 20260901182406 | 63 | 291 | 1.0 | 2.0 | 0.00 | 0.01 | 0.01 | 73 | 1019.1 |
| 20260901181906 | 63 | 282 | 2.0 | 3.0 | 0.00 | 0.01 | 0.01 | 73 | 1019.2 |
| 20260901181406 | 63 | 283 | 2.0 | 3.0 | 0.00 | 0.01 | 0.01 | 72 | 1019.1 |
| 20260901180906 | 64 | 278 | 2.0 | 3.0 | 0.00 | 0.01 | 0.01 | 71 | 1019.1 |
| 20260901180406 | 64 | 284 | 2.0 | 3.0 | 0.00 | 0.01 | 0.01 | 71 | 1019.1 |
| 20260901175906 | 64 | 272 | 2.0 | 6.0 | 0.00 | 0.01 | 0.01 | 70 | 1018.9 |
| 20260901175406 | 64 | 259 | 3.0 | 7.0 | 0.00 | 0.01 | 0.01 | 70 | 1018.9 |
| 20260901174907 | 65 | 292 | 3.0 | 7.0 | 0.00 | 0.01 | 0.01 | 69 | 1019.0 |
| 20260901174406 | 65 | 255 | 2.0 | 8.0 | 0.00 | 0.01 | 0.01 | 69 | 1018.9 |
| 20260901173906 | 65 | 307 | 3.0 | 9.0 | 0.00 | 0.01 | 0.01 | 68 | 1018.8 |
| 20260901173406 | 66 | 288 | 6.0 | 12.0 | 0.00 | 0.01 | 0.01 | 67 | 1018.8 |
| 20260901172906 | 66 | 265 | 5.0 | 10.0 | 0.00 | 0.01 | 0.01 | 67 | 1018.8 |
| 20260901172406 | 66 | 266 | 2.0 | 13.0 | 0.00 | 0.01 | 0.01 | 67 | 1018.8 |
| 20260901171906 | 66 | 295 | 4.0 | 12.0 | 0.00 | 0.01 | 0.01 | 66 | 1018.8 |
| 20260901170405 | 66 | 336 | 5.0 | 12.0 | 0.00 | 0.01 | 0.01 | 65 | 1018.7 |
| 20260901165907 | 67 | 326 | 4.0 | 8.0 | 0.00 | 0.01 | 0.01 | 65 | 1018.6 |
| 20260901165406 | 67 | 301 | 4.0 | 12.0 | 0.00 | 0.01 | 0.01 | 64 | 1018.6 |
| 20260901164905 | 67 | 273 | 9.0 | 13.0 | 0.00 | 0.01 | 0.01 | 64 | 1018.6 |
| 20260901164406 | 67 | 327 | 5.0 | 12.0 | 0.00 | 0.01 | 0.01 | 65 | 1018.6 |
| 20260901163906 | 67 | 286 | 3.0 | 10.0 | 0.00 | 0.01 | 0.01 | 65 | 1018.6 |
| 20260901163405 | 67 | 329 | 4.0 | 12.0 | 0.00 | 0.01 | 0.01 | 64 | 1018.6 |
| 20260901162906 | 68 | 280 | 6.0 | 10.0 | 0.00 | 0.01 | 0.01 | 63 | 1018.5 |
| 20260901162406 | 68 | 287 | 6.0 | 12.0 | 0.00 | 0.01 | 0.01 | 63 | 1018.6 |
| 20260901161906 | 68 | 322 | 3.0 | 12.0 | 0.00 | 0.01 | 0.01 | 63 | 1018.5 |
| 20260901161406 | 68 | 313 | 5.0 | 10.0 | 0.00 | 0.01 | 0.01 | 63 | 1018.5 |
| 20260901160405 | 68 | 294 | 5.0 | 10.0 | 0.00 | 0.01 | 0.01 | 61 | 1018.4 |
| 20260901155906 | 69 | 296 | 6.0 | 16.0 | 0.00 | 0.01 | 0.01 | 59 | 1018.4 |
| 20260901155406 | 70 | 266 | 6.0 | 12.0 | 0.00 | 0.01 | 0.01 | 58 | 1018.3 |
| 20260901154906 | 69 | 286 | 6.0 | 12.0 | 0.00 | 0.01 | 0.01 | 60 | 1018.3 |
| 20260901154406 | 69 | 272 | 6.0 | 13.0 | 0.00 | 0.01 | 0.01 | 57 | 1018.4 |
| 20260901153406 | 69 | 267 | 6.0 | 15.0 | 0.00 | 0.01 | 0.01 | 58 | 1018.3 |
| 20260901152906 | 69 | 288 | 7.0 | 16.0 | 0.00 | 0.01 | 0.01 | 58 | 1018.2 |
| 20260901152406 | 70 | 305 | 6.0 | 17.0 | 0.00 | 0.01 | 0.01 | 58 | 1018.2 |
| 20260901151906 | 70 | 245 | 6.0 | 14.0 | 0.00 | 0.01 | 0.01 | 56 | 1018.2 |
| 20260901150906 | 71 | 265 | 5.0 | 15.0 | 0.00 | 0.01 | 0.01 | 56 | 1018.1 |
| 20260901150406 | 71 | 216 | 3.0 | 12.0 | 0.00 | 0.01 | 0.01 | 57 | 1018.1 |
| 20260901145906 | 71 | 269 | 7.0 | 14.0 | 0.00 | 0.01 | 0.01 | 56 | 1018.1 |
| 20260901144906 | 71 | 291 | 7.0 | 13.0 | 0.00 | 0.01 | 0.01 | 57 | 1018.1 |
| 20260901144406 | 71 | 281 | 9.0 | 15.0 | 0.00 | 0.01 | 0.01 | 57 | 1018.1 |
| 20260901143906 | 71 | 277 | 8.0 | 14.0 | 0.00 | 0.01 | 0.01 | 58 | 1018.0 |
| 20260901142406 | 71 | 267 | 9.0 | 14.0 | 0.00 | 0.01 | 0.01 | 58 | 1018.1 |
| 20260901141906 | 69 | 274 | 5.0 | 12.0 | 0.00 | 0.01 | 0.01 | 59 | 1018.0 |
| 20260901141407 | 69 | 268 | 7.0 | 16.0 | 0.00 | 0.01 | 0.01 | 57 | 1018.1 |
| 20260901140906 | 71 | 275 | 7.0 | 20.0 | 0.00 | 0.01 | 0.01 | 55 | 1018.0 |
| 20260901140408 | 71 | 273 | 6.0 | 16.0 | 0.00 | 0.01 | 0.01 | 55 | 1017.9 |
| 20260901135906 | 71 | 275 | 9.0 | 16.0 | 0.00 | 0.01 | 0.01 | 54 | 1017.9 |
| 20260901134908 | 71 | 286 | 5.0 | 12.0 | 0.00 | 0.01 | 0.01 | 55 | 1017.8 |
| 20260901134406 | 71 | 263 | 7.0 | 14.0 | 0.00 | 0.01 | 0.01 | 56 | 1017.8 |
| 20260901133906 | 70 | 262 | 7.0 | 15.0 | 0.00 | 0.01 | 0.01 | 55 | 1017.8 |
| 20260901133406 | 70 | 299 | 10.0 | 17.0 | 0.00 | 0.01 | 0.01 | 57 | 1017.8 |
| 20260901132905 | 68 | 259 | 7.0 | 16.0 | 0.00 | 0.01 | 0.01 | 59 | 1017.8 |
| 20260901132406 | 69 | 278 | 7.0 | 14.0 | 0.00 | 0.01 | 0.01 | 60 | 1017.8 |
| 20260901131905 | 70 | 270 | 7.0 | 16.0 | 0.00 | 0.01 | 0.01 | 56 | 1017.7 |
| 20260901130906 | 70 | 288 | 6.0 | 13.0 | 0.00 | 0.01 | 0.01 | 58 | 1017.7 |
| 20260901130406 | 70 | 305 | 8.0 | 15.0 | 0.00 | 0.01 | 0.01 | 59 | 1017.6 |
| 20260901125906 | 70 | 286 | 7.0 | 14.0 | 0.00 | 0.01 | 0.01 | 60 | 1017.7 |
| 20260901125406 | 70 | 211 | 5.0 | 13.0 | 0.00 | 0.01 | 0.01 | 58 | 1017.6 |
| 20260901124906 | 70 | 193 | 8.0 | 15.0 | 0.00 | 0.01 | 0.01 | 55 | 1017.6 |
| 20260901124406 | 69 | 284 | 6.0 | 14.0 | 0.00 | 0.01 | 0.01 | 57 | 1017.7 |
| 20260901123906 | 69 | 271 | 6.0 | 20.0 | 0.00 | 0.01 | 0.01 | 60 | 1017.7 |
| 20260901123407 | 70 | 287 | 8.0 | 17.0 | 0.00 | 0.01 | 0.01 | 58 | 1017.6 |
| 20260901122906 | 71 | 275 | 5.0 | 13.0 | 0.00 | 0.02 | 0.01 | 57 | 1017.6 |
| 20260901122406 | 71 | 250 | 9.0 | 14.0 | 0.00 | 0.02 | 0.01 | 54 | 1017.6 |
| 20260901121906 | 70 | 246 | 7.0 | 14.0 | 0.00 | 0.02 | 0.01 | 56 | 1017.7 |
| 20260901121406 | 70 | 274 | 6.0 | 13.0 | 0.00 | 0.02 | 0.01 | 56 | 1017.7 |
| 20260901120907 | 70 | 282 | 8.0 | 16.0 | 0.00 | 0.02 | 0.01 | 58 | 1017.7 |
| 20260901120406 | 70 | 254 | 9.0 | 15.0 | 0.00 | 0.02 | 0.01 | 57 | 1017.6 |
| 20260901115906 | 70 | 268 | 9.0 | 15.0 | 0.00 | 0.02 | 0.01 | 58 | 1017.7 |
| 20260901114906 | 69 | 224 | 6.0 | 13.0 | 0.00 | 0.02 | 0.01 | 60 | 1017.6 |
| 20260901114406 | 68 | 240 | 5.0 | 15.0 | 0.00 | 0.02 | 0.01 | 62 | 1017.6 |
| 20260901113906 | 68 | 281 | 9.0 | 20.0 | 0.00 | 0.02 | 0.01 | 62 | 1017.6 |
| 20260901113406 | 68 | 281 | 9.0 | 15.0 | 0.00 | 0.02 | 0.01 | 61 | 1017.7 |
| 20260901112406 | 70 | 272 | 9.0 | 18.0 | 0.00 | 0.02 | 0.01 | 60 | 1017.7 |
| 20260901111908 | 70 | 284 | 7.0 | 17.0 | 0.00 | 0.03 | 0.01 | 61 | 1017.5 |
| 20260901111406 | 69 | 270 | 6.0 | 14.0 | 0.00 | 0.17 | 0.01 | 62 | 1017.5 |
| 20260901110906 | 68 | 253 | 6.0 | 14.0 | 0.00 | 0.20 | 0.01 | 63 | 1017.5 |
| 20260901105407 | 68 | 287 | 9.0 | 17.0 | 0.00 | 0.20 | 0.01 | 64 | 1017.6 |
| 20260901104906 | 67 | 281 | 5.0 | 17.0 | 0.00 | 0.25 | 0.01 | 67 | 1017.6 |
| 20260901104405 | 67 | 277 | 9.0 | 15.0 | 0.00 | 0.26 | 0.01 | 66 | 1017.6 |
| 20260901103906 | 67 | 280 | 7.0 | 18.0 | 0.00 | 0.29 | 0.01 | 67 | 1017.6 |
| 20260901102906 | 67 | 266 | 5.0 | 16.0 | 0.00 | 0.30 | 0.01 | 68 | 1017.6 |
| 20260901102405 | 66 | 269 | 6.0 | 17.0 | 0.00 | 0.30 | 0.01 | 69 | 1017.6 |
| 20260901101905 | 66 | 240 | 7.0 | 14.0 | 0.00 | 0.30 | 0.01 | 69 | 1017.6 |
| 20260901101406 | 66 | 261 | 6.0 | 12.0 | 0.00 | 0.30 | 0.01 | 71 | 1017.5 |
| 20260901100406 | 64 | 270 | 6.0 | 14.0 | 0.00 | 0.30 | 0.01 | 73 | 1017.6 |
| 20260901095906 | 64 | 218 | 4.0 | 9.0 | 0.00 | 0.30 | 0.01 | 74 | 1017.5 |
| 20260901094906 | 64 | 242 | 5.0 | 12.0 | 0.00 | 0.30 | 0.01 | 75 | 1017.4 |
| 20260901093906 | 64 | 220 | 6.0 | 12.0 | 0.00 | 0.30 | 0.01 | 75 | 1017.3 |
| 20260901092906 | 64 | 224 | 4.0 | 14.0 | 0.00 | 0.30 | 0.01 | 75 | 1017.1 |
| 20260901092406 | 64 | 224 | 5.0 | 15.0 | 0.00 | 0.30 | 0.01 | 76 | 1017.1 |
| 20260901091906 | 65 | 275 | 5.0 | 12.0 | 0.00 | 0.30 | 0.01 | 76 | 1017.1 |
| 20260901091406 | 65 | 248 | 6.0 | 15.0 | 0.00 | 0.30 | 0.01 | 76 | 1017.1 |
| 20260901090906 | 65 | 192 | 6.0 | 13.0 | 0.00 | 0.30 | 0.01 | 75 | 1017.1 |
| 20260901090406 | 65 | 264 | 5.0 | 10.0 | 0.00 | 0.30 | 0.01 | 76 | 1017.0 |
| 20260901085906 | 65 | 232 | 5.0 | 14.0 | 0.00 | 0.30 | 0.01 | 76 | 1017.0 |
| 20260901085406 | 65 | 243 | 7.0 | 16.0 | 0.00 | 0.30 | 0.01 | 75 | 1016.9 |
| 20260901084408 | 65 | 231 | 6.0 | 18.0 | 0.00 | 0.30 | 0.01 | 75 | 1016.8 |
| 20260901083906 | 66 | 263 | 7.0 | 14.0 | 0.00 | 0.30 | 0.01 | 74 | 1016.7 |